Showing default

AAC-HSI-SAT1, 56225

Orbit data source: Space-Track

AAC-HSI-SAT1, 56225 is a UK payload satellite in SSO that was launched on Sat, 15 Apr 2023 UTC via an FALCON 9 launch vehicle from the Air Force Western Test Range (AFWTR). Payload-class satellites include a variety of spacecraft equipped with specific instruments for various scientific and technological missions. These include communications satellites like Starlink; space stations such as the ISS; scientific satellites like the Hubble; Earth observation satellites from companies like Planet Labs, Umbra, and HawkEye 360; GPS; miniature CubeSats for education and research; and military/defense satellites.

Loading next visibility...
Identifier
56225, 2023-054AZ
Orbit
SSO
Country
Flag of UKUK
Related business
Manufacturer
AAC ClydeSpace
Mission
Operational Commercial Imaging
Bus & Motor
CUBESAT 6U, Unknown motor
Mass
10 kg wet, ~10 kg dry
Launch date (UTC)
2023-04-15 (3 years ago)
Launch vehicle
FALCON 9
Launch site
Air Force Western Test Range (AFWTR)
Object type
Payload
Rocket body
Debris
Shape & HBR
Box + 2 Pan, 1.0 m
Radar Cross Section
0.092 m², Medium (>0.1 m² and < 1m²)

Expand to show TLE details & history
Last TLE update: 8 hours ago

TLE from 8 hours ago
0 AAC-HSI-SAT1
1 56225U 23054AZ  25310.26853667  .00007007  00000-0  41969-3 0  9994
2 56225  97.3953 189.0397 0010277 165.3892 194.7638 15.11257629141683
Epoch: 2025-11-06T06:26Z
TLE epoch observation values (Epoch: 2025-11-06T06:26:41.568Z)
Latitude
0.00004°
Longitude
46.63721°
Altitude
542.312 km
Speed
7.587 km/s
True Right ascension
12h 36m 09s
True Declination
0° 00' 00"
Sunlit
Object was in daylight at epoch
Visualization orbit readout
Latitude
Unknown
Longitude
Unknown
Altitude
Unknown
Speed
Unknown
Apparent Right ascension
Unknown
Apparent Declination
Unknown
Sunlit
N/A
Visualization observer readout
Local Sidereal Time
10:37:50
Azimuth
Unknown
Elevation
Unknown
Doppler factor
Unknown
Orbital elements
Apogee altitude
536.439 km
Perigee altitude
522.242 km
Semi-major axis
6,907.478 km
Eccentricity
0.00103
Inclination
97.3953°
RAAN
189.0397°
Arg. of periapsis
165.3892°
True anomaly
194.73383°
Mean anomaly
194.7638°
Eccentric anomaly
194.74881°
Mean motion
3.78063 °/min
Orbital period
95.22 mins
BSTAR
0.00041969
Loading maneuver chart data...
Computing Atmospheric mass density...
Loading historical data...
Loading historical data...
Loading historical data...
Loading historical data...
Loading historical data...
Loading historical data...
Loading historical data...

Documentation

Showing up to 5 results
|